DW7787 Weather Reports


Display with metric or nautical units.
time (UTC)temp
F
wind
direction
speed
MPH
gust
MPH
rain 1hr
in
rain 24hr
in
rain mn
in
humidity
%
barometer
mb
20260510223942 83 327 1.0 3.0 0.00 0.00 0.00 29 1015.9
20260510223444 83 105 1.0 3.0 0.00 0.00 0.00 31 1015.9
20260510222942 84 200 1.0 3.0 0.00 0.00 0.00 31 1015.9
20260510222443 84 87 1.0 4.0 0.00 0.00 0.00 29 1015.9
20260510221940 84 36 1.0 4.0 0.00 0.00 0.00 27 1015.9
20260510221928 85 213 1.0 3.0 0.00 0.00 0.00 29 1015.8
20260510221923 85 34 1.0 3.0 0.00 0.00 0.00 29 1015.8
20260510220439 84 195 1.0 3.0 0.00 0.00 0.00 27 1015.8
20260510215939 84 244 1.0 2.0 0.00 0.00 0.00 27 1015.8
20260510215742 85 150 1.0 2.0 0.00 0.00 0.00 28 1015.7
20260510215245 86 164 1.0 5.0 0.00 0.00 0.00 27 1015.8
20260510214437 86 272 1.0 5.0 0.00 0.00 0.00 26 1015.8
20260510213935 87 88 1.0 3.0 0.00 0.00 0.00 24 1015.8
20260510213437 87 225 1.0 8.0 0.00 0.00 0.00 24 1015.8
20260510212940 87 244 2.0 8.0 0.00 0.00 0.00 24 1015.8
20260510212751 87 126 1.0 5.0 0.00 0.00 0.00 24 1015.7
20260510211935 87 217 1.0 3.0 0.00 0.00 0.00 25 1015.7
20260510211437 86 212 1.0 3.0 0.00 0.00 0.00 23 1015.7
20260510210933 86 182 1.0 3.0 0.00 0.00 0.00 26 1015.8
20260510210436 86 228 1.0 4.0 0.00 0.00 0.00 24 1015.8
20260510205931 85 177 2.0 4.0 0.00 0.00 0.00 26 1015.8
20260510205432 85 42 2.0 6.0 0.00 0.00 0.00 25 1015.7
20260510204928 85 9 2.0 6.0 0.00 0.00 0.00 23 1015.8
20260510204422 86 265 2.0 6.0 0.00 0.00 0.00 24 1015.9
20260510203919 86 319 2.0 7.0 0.00 0.00 0.00 25 1015.9
20260510203410 86 172 1.0 7.0 0.00 0.00 0.00 25 1015.9
20260510203214 86 290 1.0 2.0 0.00 0.00 0.00 28 1015.9
20260510202358 85 59 1.0 3.0 0.00 0.00 0.00 23 1016.0
20260510201852 85 70 1.0 5.0 0.00 0.00 0.00 24 1016.0
20260510201346 85 290 1.0 5.0 0.00 0.00 0.00 25 1016.1
20260510200840 86 49 2.0 6.0 0.00 0.00 0.00 26 1016.1
20260510200334 85 333 2.0 9.0 0.00 0.00 0.00 23 1016.1
20260510195831 86 288 2.0 9.0 0.00 0.00 0.00 24 1016.2
20260510195331 87 50 1.0 5.0 0.00 0.00 0.00 24 1016.2
20260510194831 87 238 1.0 8.0 0.00 0.00 0.00 24 1016.2
20260510194650 87 180 2.0 8.0 0.00 0.00 0.00 24 1016.2
20260510193832 86 128 3.0 8.0 0.00 0.00 0.00 25 1016.3
20260510193641 86 202 2.0 8.0 0.00 0.00 0.00 24 1016.3
20260510192835 87 291 1.0 5.0 0.00 0.00 0.00 26 1016.2
20260510192332 87 144 1.0 5.0 0.00 0.00 0.00 24 1016.2
20260510191831 87 170 1.0 7.0 0.00 0.00 0.00 27 1016.2
20260510191332 87 155 2.0 7.0 0.00 0.00 0.00 27 1016.3
20260510190831 86 221 2.0 4.0 0.00 0.00 0.00 30 1016.3
20260510190332 86 178 2.0 6.0 0.00 0.00 0.00 28 1016.2
20260510185833 85 121 2.0 8.0 0.00 0.00 0.00 27 1016.3
20260510185332 85 174 1.0 8.0 0.00 0.00 0.00 27 1016.3
20260510185140 84 188 1.0 5.0 0.00 0.00 0.00 29 1016.3
20260510184640 84 211 2.0 5.0 0.00 0.00 0.00 31 1016.4
20260510183835 85 109 1.0 5.0 0.00 0.00 0.00 31 1016.3
20260510183331 84 5 1.0 3.0 0.00 0.00 0.00 31 1016.4
20260510182825 84 35 1.0 3.0 0.00 0.00 0.00 29 1016.6
20260510182319 84 46 1.0 3.0 0.00 0.00 0.00 33 1016.5
20260510181813 83 67 1.0 4.0 0.00 0.00 0.00 32 1016.4
20260510181305 82 188 1.0 4.0 0.00 0.00 0.00 33 1016.5
20260510180805 81 223 1.0 4.0 0.00 0.00 0.00 31 1016.5
20260510180304 81 59 2.0 4.0 0.00 0.00 0.00 34 1016.7
20260510175805 81 53 2.0 4.0 0.00 0.00 0.00 32 1016.7
20260510175306 81 79 2.0 3.0 0.00 0.00 0.00 31 1016.7
20260510175107 82 50 2.0 4.0 0.00 0.00 0.00 32 1016.8
20260510174302 82 48 2.0 5.0 0.00 0.00 0.00 30 1016.9
20260510173802 82 355 2.0 5.0 0.00 0.00 0.00 31 1016.9
20260510173302 82 211 2.0 4.0 0.00 0.00 0.00 32 1017.0
20260510172802 83 12 2.0 4.0 0.00 0.00 0.00 30 1017.1
20260510172300 82 304 2.0 4.0 0.00 0.00 0.00 33 1017.2
20260510171802 82 148 2.0 4.0 0.00 0.00 0.00 34 1017.2
20260510171303 82 215 1.0 4.0 0.00 0.00 0.00 32 1017.2
20260510171109 81 94 1.0 4.0 0.00 0.00 0.00 36 1017.3
20260510170302 80 64 1.0 4.0 0.00 0.00 0.00 36 1017.4
20260510170110 80 19 1.0 3.0 0.00 0.00 0.00 34 1017.3
20260510165301 79 214 2.0 3.0 0.00 0.00 0.00 33 1017.3
20260510164802 79 311 2.0 4.0 0.00 0.00 0.00 33 1017.4
20260510164301 79 65 2.0 4.0 0.00 0.00 0.00 36 1017.4
20260510163801 79 49 2.0 4.0 0.00 0.00 0.00 36 1017.4
20260510163300 79 61 1.0 3.0 0.00 0.00 0.00 35 1017.2
20260510162801 79 13 2.0 5.0 0.00 0.00 0.00 37 1017.2
20260510162305 78 221 2.0 5.0 0.00 0.00 0.00 36 1017.4
20260510161801 78 335 1.0 4.0 0.00 0.00 0.00 35 1017.3
20260510161302 77 129 2.0 5.0 0.00 0.00 0.00 38 1017.5
20260510160801 77 334 2.0 5.0 0.00 0.00 0.00 37 1017.5
20260510160549 76 133 1.0 4.0 0.00 0.00 0.00 43 1017.3
20260510155804 76 192 2.0 4.0 0.00 0.00 0.00 43 1017.4
20260510155306 76 197 2.0 5.0 0.00 0.00 0.00 40 1017.5
20260510155115 76 42 2.0 5.0 0.00 0.00 0.00 43 1017.5
20260510154303 75 53 2.0 5.0 0.00 0.00 0.00 44 1017.5
20260510153800 75 118 2.0 5.0 0.00 0.00 0.00 45 1017.5
20260510153303 75 38 1.0 4.0 0.00 0.00 0.00 45 1017.5
20260510152926 74 92 2.0 4.0 0.00 0.00 0.00 44 1017.5
20260510152852 74 70 2.0 4.0 0.00 0.00 0.00 43 1017.5
20260510151805 74 100 2.0 4.0 0.00 0.00 0.00 49 1017.5
20260510151305 74 233 2.0 8.0 0.00 0.00 0.00 48 1017.5
20260510150805 73 48 1.0 8.0 0.00 0.00 0.00 49 1017.5
20260510150305 73 340 1.0 5.0 0.00 0.00 0.00 50 1017.4
20260510145800 73 5 1.0 6.0 0.00 0.00 0.00 50 1017.5
20260510145301 73 308 1.0 6.0 0.00 0.00 0.00 49 1017.5
20260510144801 72 71 1.0 5.0 0.00 0.00 0.00 51 1017.6
20260510144302 72 113 1.0 5.0 0.00 0.00 0.00 54 1017.6
20260510143802 72 317 2.0 5.0 0.00 0.00 0.00 56 1017.5
20260510143600 72 348 2.0 5.0 0.00 0.00 0.00 56 1017.5
20260510142801 71 0 2.0 4.0 0.00 0.00 0.00 58 1017.4
20260510142305 71 257 2.0 4.0 0.00 0.00 0.00 58 1017.4
20260510141801 71 319 1.0 5.0 0.00 0.00 0.00 59 1017.5
20260510141301 71 348 2.0 8.0 0.00 0.00 0.00 58 1017.4
20260510140801 70 11 2.0 8.0 0.00 0.00 0.00 59 1017.4
20260510140301 70 20 1.0 4.0 0.00 0.00 0.00 58 1017.3
20260510135805 69 355 1.0 4.0 0.00 0.00 0.00 65 1017.3
20260510135305 69 5 1.0 3.0 0.00 0.00 0.00 68 1017.4
20260510135108 69 45 1.0 5.0 0.00 0.00 0.00 69 1017.3
20260510134300 68 42 1.0 5.0 0.00 0.00 0.00 70 1017.3
20260510134102 68 9 1.0 4.0 0.00 0.00 0.00 72 1017.3
20260510133302 67 28 2.0 5.0 0.00 0.00 0.00 74 1017.2
20260510133103 67 355 1.0 5.0 0.00 0.00 0.00 76 1017.2
20260510132301 66 290 1.0 5.0 0.00 0.00 0.00 78 1017.2
20260510132054 65 22 2.0 5.0 0.00 0.00 0.00 80 1017.2
20260510131301 65 340 2.0 7.0 0.00 0.00 0.00 83 1017.2
20260510130802 64 11 1.0 7.0 0.00 0.00 0.00 89 1017.2
20260510130300 63 346 1.0 6.0 0.00 0.00 0.00 93 1017.2
20260510125804 62 16 1.0 4.0 0.00 0.00 0.00 94 1017.1
20260510125307 62 340 1.0 4.0 0.00 0.00 0.00 95 1017.2
20260510124804 62 321 1.0 3.0 0.00 0.00 0.00 95 1017.2
20260510124303 62 178 1.0 3.0 0.00 0.00 0.00 95 1017.1
20260510123802 61 255 1.0 3.0 0.00 0.00 0.00 95 1017.1
20260510123303 61 334 0.0 2.0 0.00 0.00 0.00 95 1017.0
20260510122803 61 351 0.0 2.0 0.00 0.00 0.00 95 1016.9
20260510122301 61 19 0.0 3.0 0.00 0.00 0.00 95 1016.9
20260510121801 60 246 1.0 3.0 0.00 0.00 0.00 95 1016.8
20260510121303 60 259 1.0 3.0 0.00 0.00 0.00 95 1016.7
20260510120802 60 296 0.0 3.0 0.00 0.00 0.00 95 1016.6
20260510120602 60 252 0.0 2.0 0.00 0.00 0.00 95 1016.3
20260510115802 60 242 0.0 3.0 0.00 0.00 0.00 95 1016.3
20260510115259 59 273 1.0 3.0 0.00 0.00 0.00 95 1016.2
20260510115058 59 261 0.0 2.0 0.00 0.00 0.00 95 1016.1
20260510114247 59 282 0.0 1.0 0.00 0.00 0.00 95 1016.1
20260510113927 59 282 0.0 1.0 0.00 0.00 0.00 94 1016.0
20260510113854 59 282 0.0 1.0 0.00 0.00 0.00 94 1016.0
20260510112740 58 282 0.0 0.0 0.00 0.00 0.00 94 1015.9
20260510112237 58 282 0.0 1.0 0.00 0.00 0.00 94 1015.9
20260510111738 58 282 0.0 1.0 0.00 0.00 0.00 94 1015.9
20260510111237 58 282 0.0 0.0 0.00 0.00 0.00 94 1015.9
20260510110737 58 282 0.0 1.0 0.00 0.00 0.00 94 1015.8
20260510110236 58 282 0.0 1.0 0.00 0.00 0.00 94 1015.7
20260510105738 58 281 0.0 1.0 0.00 0.00 0.00 94 1015.7
20260510105235 58 281 0.0 1.0 0.00 0.00 0.00 94 1015.6
20260510104732 58 282 0.0 0.0 0.00 0.00 0.00 93 1015.6
20260510104230 58 281 0.0 0.0 0.00 0.00 0.00 93 1015.5
20260510103731 58 281 0.0 0.0 0.00 0.00 0.00 93 1015.4
20260510103231 58 282 0.0 0.0 0.00 0.00 0.00 93 1015.3
20260510102730 58 282 0.0 1.0 0.00 0.00 0.00 93 1015.2
20260510102229 59 282 0.0 1.0 0.00 0.00 0.00 93 1015.1
20260510101730 59 282 0.0 1.0 0.00 0.00 0.00 93 1015.1
20260510101237 59 282 0.0 1.0 0.00 0.00 0.00 93 1015.0
20260510101044 59 282 0.0 1.0 0.00 0.00 0.00 93 1014.9
20260510100553 59 282 0.0 0.0 0.00 0.00 0.00 93 1014.9
20260510095727 59 282 0.0 0.0 0.00 0.00 0.00 93 1014.9
20260510095218 59 282 0.0 1.0 0.00 0.00 0.00 93 1014.8
20260510094713 59 281 0.0 1.0 0.00 0.00 0.00 93 1014.7
20260510094207 60 282 0.0 0.0 0.00 0.00 0.00 93 1014.7
20260510093700 60 282 0.0 0.0 0.00 0.00 0.00 93 1014.6
20260510093154 60 282 0.0 0.0 0.00 0.00 0.00 93 1014.5
20260510092647 60 282 0.0 0.0 0.00 0.00 0.00 93 1014.4
20260510092142 60 282 0.0 0.0 0.00 0.00 0.00 93 1014.4
20260510091634 60 281 0.0 0.0 0.00 0.00 0.00 93 1014.3
20260510091603 60 281 0.0 1.0 0.00 0.00 0.00 93 1014.3
20260510091557 60 281 0.0 1.0 0.00 0.00 0.00 93 1014.3
20260510090135 60 281 0.0 1.0 0.00 0.00 0.00 93 1014.2
20260510085634 60 284 0.0 1.0 0.00 0.00 0.00 93 1014.2
20260510085133 60 284 0.0 1.0 0.00 0.00 0.00 93 1014.2
20260510084630 60 315 0.0 1.0 0.00 0.00 0.00 93 1014.0
20260510084130 60 315 0.0 1.0 0.00 0.00 0.00 93 1014.0
20260510083630 60 315 0.0 2.0 0.00 0.00 0.00 93 1014.0
20260510083131 60 282 0.0 2.0 0.00 0.00 0.00 92 1013.9
20260510082629 60 250 0.0 1.0 0.00 0.00 0.00 92 1013.9
20260510082133 60 250 0.0 1.0 0.00 0.00 0.00 92 1013.8
20260510081631 60 250 0.0 1.0 0.00 0.00 0.00 92 1013.7
20260510081129 60 250 0.0 0.0 0.00 0.00 0.00 92 1013.6
20260510080632 60 250 0.0 1.0 0.00 0.00 0.00 92 1013.7
20260510080130 60 250 0.0 1.0 0.00 0.00 0.00 92 1013.6
20260510075629 60 250 0.0 0.0 0.00 0.00 0.00 92 1013.6
20260510075133 60 250 0.0 0.0 0.00 0.00 0.00 91 1013.6
20260510074630 61 250 0.0 0.0 0.00 0.00 0.00 91 1013.6
20260510074126 61 250 0.0 0.0 0.00 0.00 0.00 91 1013.6
20260510073619 61 250 0.0 0.0 0.00 0.00 0.00 91 1013.5
20260510073415 61 250 0.0 0.0 0.00 0.00 0.00 91 1013.5
20260510072611 61 250 0.0 0.0 0.00 0.00 0.00 91 1013.4
20260510072103 61 250 0.0 0.0 0.00 0.00 0.00 91 1013.4
20260510071603 61 250 0.0 0.0 0.00 0.00 0.00 91 1013.4
20260510071101 61 250 0.0 0.0 0.00 0.00 0.00 91 1013.4
20260510070602 61 250 0.0 0.0 0.00 0.00 0.00 91 1013.4
20260510065601 61 250 0.0 0.0 0.00 0.00 0.00 91 1013.5
20260510065408 61 250 0.0 0.0 0.00 0.00 0.00 91 1013.5
20260510064821 62 250 0.0 0.0 0.00 0.00 0.00 89 1013.4
20260510064735 61 250 0.0 0.0 0.00 0.00 0.00 90 1013.5
20260510064141 62 250 0.0 0.0 0.00 0.00 0.00 89 1013.5
20260510063101 62 250 0.0 0.0 0.00 0.00 0.00 89 1013.4
20260510062604 62 250 0.0 0.0 0.00 0.00 0.00 89 1013.5
20260510062101 62 250 0.0 0.0 0.00 0.00 0.00 89 1013.4
20260510061601 62 250 0.0 0.0 0.00 0.00 0.00 89 1013.5
20260510061105 62 250 0.0 0.0 0.00 0.00 0.00 88 1013.5
20260510060602 62 250 0.0 0.0 0.00 0.00 0.00 88 1013.4
20260510060101 62 250 0.0 0.0 0.00 0.00 0.00 88 1013.3
20260510055858 62 250 0.0 0.0 0.00 0.00 0.00 88 1013.3
20260510055101 63 250 0.0 0.0 0.00 0.00 0.00 88 1013.3
20260510054601 63 250 0.0 0.0 0.00 0.00 0.00 88 1013.4
20260510054058 63 250 0.0 0.0 0.00 0.00 0.00 88 1013.4
20260510053557 63 250 0.0 0.0 0.00 0.00 0.00 88 1013.4
20260510053058 63 250 0.0 0.0 0.00 0.00 0.00 87 1013.5
20260510052556 63 250 0.0 0.0 0.00 0.00 0.00 87 1013.5
20260510052202 64 250 0.0 0.0 0.00 0.00 0.00 88 1013.4
20260510052141 63 250 0.0 0.0 0.00 0.00 0.00 87 1013.5
20260510051052 64 250 0.0 1.0 0.00 0.00 0.00 88 1013.4
20260510050553 64 250 0.0 1.0 0.00 0.00 0.00 88 1013.4
20260510050050 64 279 0.0 2.0 0.00 0.00 0.00 87 1013.5
20260510045548 64 306 0.0 2.0 0.00 0.00 0.00 87 1013.5
20260510045050 64 263 0.0 2.0 0.00 0.00 0.00 87 1013.7
20260510044857 64 287 0.0 2.0 0.00 0.00 0.00 87 1013.6
20260510044049 64 0 0.0 1.0 0.00 0.00 0.00 87 1013.6
20260510043855 64 225 0.0 1.0 0.00 0.00 0.00 87 1013.6
20260510043052 64 225 0.0 1.0 0.00 0.00 0.00 87 1013.6
20260510042548 64 225 0.0 1.0 0.00 0.00 0.00 86 1013.6
20260510042049 64 211 0.0 1.0 0.00 0.00 0.00 86 1013.7
20260510041549 64 211 0.0 1.0 0.00 0.00 0.00 86 1013.7
20260510041048 64 211 0.0 2.0 0.00 0.00 0.00 86 1013.7
20260510040550 64 207 0.0 2.0 0.00 0.00 0.00 86 1013.7
20260510040352 64 126 0.0 2.0 0.00 0.00 0.00 86 1013.8
20260510035547 64 208 0.0 2.0 0.00 0.00 0.00 86 1013.7
20260510035045 64 213 0.0 2.0 0.00 0.00 0.00 86 1013.7
20260510034543 64 182 1.0 3.0 0.00 0.00 0.00 86 1013.7
20260510034046 64 231 1.0 3.0 0.00 0.00 0.00 86 1013.7
20260510033542 64 194 0.0 2.0 0.00 0.00 0.00 86 1013.9
20260510033036 64 220 0.0 2.0 0.00 0.00 0.00 86 1013.8
20260510032537 64 220 0.0 2.0 0.00 0.00 0.00 86 1013.8
20260510032338 64 244 0.0 2.0 0.00 0.00 0.00 85 1013.7
20260510031535 64 84 0.0 1.0 0.00 0.00 0.00 85 1013.7
20260510031033 64 88 0.0 1.0 0.00 0.00 0.00 84 1013.7
20260510030530 64 88 0.0 1.0 0.00 0.00 0.00 84 1013.6
20260510030031 64 88 0.0 1.0 0.00 0.00 0.00 84 1013.7
20260510025528 65 88 0.0 1.0 0.00 0.00 0.00 84 1013.6
20260510025021 65 88 0.0 1.0 0.00 0.00 0.00 84 1013.6
20260510024515 65 88 0.0 0.0 0.00 0.00 0.00 84 1013.6
20260510024015 65 88 0.0 1.0 0.00 0.00 0.00 83 1013.6
20260510023814 65 88 0.0 1.0 0.00 0.00 0.00 83 1013.6
20260510023311 65 88 0.0 1.0 0.00 0.00 0.00 82 1013.5
20260510022512 65 88 0.0 0.0 0.00 0.00 0.00 81 1013.5
20260510022013 65 88 0.0 0.0 0.00 0.00 0.00 81 1013.5
20260510021513 65 88 0.0 0.0 0.00 0.00 0.00 81 1013.6
20260510021013 66 88 0.0 0.0 0.00 0.00 0.00 81 1013.5
20260510020513 66 88 0.0 0.0 0.00 0.00 0.00 80 1013.4
20260510020013 66 88 0.0 0.0 0.00 0.00 0.00 80 1013.4
20260510015517 66 88 0.0 0.0 0.00 0.00 0.00 80 1013.4
20260510015013 66 88 0.0 0.0 0.00 0.00 0.00 80 1013.5
20260510014513 66 88 0.0 0.0 0.00 0.00 0.00 79 1013.2
20260510014013 67 88 0.0 1.0 0.00 0.00 0.00 79 1013.2
20260510013513 67 88 0.0 1.0 0.00 0.00 0.00 79 1013.1
20260510013012 67 88 0.0 0.0 0.00 0.00 0.00 78 1013.1
20260510012512 67 88 0.0 1.0 0.00 0.00 0.00 78 1013.1
20260510012013 67 88 0.0 1.0 0.00 0.00 0.00 77 1012.9
20260510011511 67 88 0.0 1.0 0.00 0.00 0.00 77 1012.8
20260510011012 68 88 0.0 1.0 0.00 0.00 0.00 77 1012.7
20260510010513 68 88 0.0 1.0 0.00 0.00 0.00 76 1012.7
20260510010014 68 88 0.0 1.0 0.00 0.00 0.00 76 1012.7
20260510005513 68 88 0.0 2.0 0.00 0.00 0.00 76 1012.7
20260510005010 68 88 0.0 2.0 0.00 0.00 0.00 76 1012.6
20260510004512 68 94 0.0 2.0 0.00 0.00 0.00 75 1012.5
20260510004011 69 94 0.0 2.0 0.00 0.00 0.00 75 1012.3
20260510003511 69 196 0.0 3.0 0.00 0.00 0.00 75 1012.2
20260510003013 69 196 0.0 3.0 0.00 0.00 0.00 75 1012.0
20260510002512 69 198 0.0 2.0 0.00 0.00 0.00 74 1012.0
20260510002010 69 199 0.0 1.0 0.00 0.00 0.00 74 1011.8
20260510001508 69 199 0.0 2.0 0.00 0.00 0.00 74 1011.7
20260510001321 70 199 1.0 3.0 0.00 0.00 0.00 73 1011.8
20260510000504 70 80 1.0 3.0 0.00 0.00 0.00 73 1011.9
20260510000005 70 171 0.0 2.0 0.00 0.00 0.00 73 1011.8
20260509235503 70 67 1.0 2.0 0.00 0.00 0.00 72 1011.8
20260509235003 71 266 1.0 2.0 0.00 0.00 0.00 72 1011.8
20260509234508 71 129 1.0 3.0 0.00 0.00 0.00 73 1011.5
20260509234006 71 207 1.0 3.0 0.00 0.00 0.00 72 1011.6
20260509233505 71 215 1.0 2.0 0.00 0.00 0.00 71 1011.5
20260509233006 71 150 0.0 2.0 0.00 0.00 0.00 71 1011.6
20260509232502 71 53 0.0 2.0 0.00 0.00 0.00 71 1011.8
20260509232002 71 53 0.0 2.0 0.00 0.00 0.00 71 1011.6
20260509231504 72 5 0.0 2.0 0.00 0.00 0.00 70 1011.7
20260509231006 72 5 1.0 2.0 0.00 0.00 0.00 70 1011.6
20260509230504 72 143 1.0 2.0 0.00 0.00 0.00 69 1011.5
20260509230002 72 244 1.0 2.0 0.00 0.00 0.00 69 1011.5
20260509225612 72 214 1.0 3.0 0.00 0.00 0.00 68 1011.5
20260509225551 72 71 1.0 3.0 0.00 0.00 0.00 69 1011.4